Terminal Aerodrome Forecast
Issued by NWS Wichita, KS

Home | Current Version | Previous Version | Text Only | Print | Product List | Glossary Off
Versions: 1 2 3 4 5 6 7 8 9 10 11 12

000
FTUS43 KICT 191700
TAFICT
TAF
KICT 191720Z 1918/2018 19007KT P6SM SCT120
     FM192100 19013KT P6SM SCT200
     FM200100 18010KT P6SM SKC=

USA.gov is the U.S. government's official web portal to all federal, state and local government web resources and services.